Zurück zum Katalog

COSMOS 1867 COOLANT

AktivLEO
NORAD 39675·DEBRIS·🇷🇺 Russia

Gestartet Jul 10, 1987 von Baikonur Cosmodrome

Loading…

Nächste Überflüge (nächste 24 Stunden)

TLE

AktuellSource: Space-Track

Epoche: Sep 14, 2026, 08:09 UTC

1 39675U 87060AN  26257.33964982  .00000189  00000-0  10225-3 0  9998
2 39675  65.0059 116.1744 0018435 279.0727  80.8273 14.34575983649507

Verfolge COSMOS 1867 COOLANT in Echtzeit mit AllMySat

Download on the App Store